Location: ?????
(55.8833°N, 37.6500°E)
Time: 07:03:10
(UTC+00:00)

Meteor 2-4 Rocket - Pass Details

Date: 27 February 2020
Orbit: 799 x 908 km, 81.2° (Epoch: 30 March)

Event Time Altitude Azimuth Distance (km) Brightness Sun altitude
Rises 17:04:30 0° 344° (NNW) 3,524 7.3 -18.4°
Reaches altitude 10° 17:06:57 10° 343° (NNW) 2,589 6.6 -18.7°
Maximum altitude 17:12:52 76° 260° (W) 941 4.0 -19.5°
Drops below altitude 10° 17:18:47 10° 175° (S) 2,589 6.0 -20.3°
Sets 17:21:14 0° 174° (S) 3,523 6.7 -20.7°
